Showing default

COSMOS 2587, 63290

Orbit data source: Space-Track

COSMOS 2587, 63290 is a payload satellite owned by VVKO VKS (CIS) in LEO that was launched on Sun, 16 Mar 2025 UTC via an ANGARA-1.2 launch vehicle from the Plesetsk Missile And Space Complex (PKMTR). Payload-class satellites include a variety of spacecraft equipped with specific instruments for various scientific and technological missions. These include communications satellites like Starlink; space stations such as the ISS; scientific satellites like the Hubble; Earth observation satellites from companies like Planet Labs, Umbra, and HawkEye 360; GPS; miniature CubeSats for education and research; and military/defense satellites.

Loading next visibility...
Identifier
63290, 2025-054C
Orbit
LEO
Last TLE update
5 hours ago
Origin
Manufacturer
Resehetnev ISS
Mission
Operational Defense Communications
Bus & Motor
STRELA-3M, Unknown motor
Mass
280 kg wet, 280 kg dry
Launch date (UTC)
2025-03-16 (4 months ago)
Launch vehicle
ANGARA-1.2
Launch site
Plesetsk Missile And Space Complex (PKMTR)
Object type
Payload
Rocket body
Debris
Shape & HBR
Cyl + 1 Ant, 7 m
Radar Cross Section
1.583 m², Large (>1 m²)

Expand to show TLE details & history

TLE from 5 hours ago
0 COSMOS 2587
1 63290U 25054C   25182.20291628  .00000040  00000-0  21640-3 0  9994
2 63290  82.4988 297.0350 0015186  60.9874 299.2725 12.42904704 13252
Epoch: 2025-07-01T04:52Z
TLE epoch observation values (Epoch: 2025-07-01T04:52:11.966Z)
Latitude
-0.00007°
Longitude
-55.51661°
Altitude
1,491.181 km
Speed
7.121 km/s
True Right ascension
19h 48m 08s
True Declination
0° 00' 00"
Sunlit
Object was in full shadow at epoch
Visualization orbit readout
Latitude
-67.30298°
Longitude
142.60634°
Altitude
1,531.566 km
Speed
7.095 km/s
Apparent Right ascension
09h 26m 17s
Apparent Declination
-55° 03' 33"
Sunlit
Object is in daylight
Visualization observer readout
Local Sidereal Time
21:42:18
Azimuth
171.33° S
Elevation
-74.624°
Doppler factor
1
Orbital elements
Apogee altitude
1,503.616 km
Perigee altitude
1,479.714 km
Semi-major axis
7,869.802 km
Eccentricity
0.00152
Inclination
82.4988°
RAAN
297.035°
Arg. of periapsis
60.9874°
True anomaly
Unknown
Mean anomaly
299.2725°
Eccentric anomaly
Unknown
Mean motion
3.10883 °/min
Orbital period
115.8 mins
BSTAR
0.0002164
Loading maneuver chart data...
Loading SW <> Apogee altitude chart data...
Loading historical data...
Loading historical data...
Loading historical data...
Loading historical data...
Loading historical data...
Loading historical data...
Loading historical data...
Other satellites on launch #54 in the year 2025 (2025-03-16 UTC)

COSMOS 2587 Visibility forecast

Observer location: undefined°, undefined°

Span
Click to sort rows by Start time (UTC) header in descending order
Start Az.
Max El. time (UTC)
Max El. Az.
Max El.
End time (UTC)
End Az.
6 mins2025-07-01 10:52:55.112Z281.687° WNW2025-07-01 10:55:55.112Z302.934° NW12.343°2025-07-01 10:58:55.112Z323.984° NNW
15 mins2025-07-01 19:00:55.112Z2.016° NNE2025-07-01 19:07:55.112Z72.981° E40.647°2025-07-01 19:15:55.112Z155.538° SSE
12 mins2025-07-01 20:58:55.112Z324.014° NNW2025-07-01 21:03:55.112Z281.5° WNW25.671°2025-07-01 21:10:55.112Z224.238° SW
15 mins2025-07-02 08:00:55.112Z172.033° S2025-07-02 08:07:55.112Z88.279° E43.161°2025-07-02 08:15:55.112Z12.812° NNE
4 mins2025-07-02 09:59:55.112Z247.805° W2025-07-02 10:03:55.112Z278.588° WNW22.003°2025-07-02 10:03:55.112Z278.588° WNW
|